Showing default

ANNA 1B, 446

Orbit data source: Space-Track

ANNA 1B, 446 is a payload satellite owned by USN BuWeps (US) in LEO that was launched on Wed, 31 Oct 1962 UTC via a THOR ABLESTAR launch vehicle from the Air Force Eastern Test Range (AFETR). Payload-class satellites include a variety of spacecraft equipped with specific instruments for various scientific and technological missions. These include communications satellites like Starlink; space stations such as the ISS; scientific satellites like the Hubble; Earth observation satellites from companies like Planet Labs, Umbra, and HawkEye 360; GPS; miniature CubeSats for education and research; and military/defense satellites.

Loading next visibility...
Identifier
446, 1962-060A
Orbit
LEO
Country
Flag of USUS
Related business
Manufacturer
APL
Mission
Spacecraft
Bus & Motor
TRANSIT 1, Unknown motor
Mass
157 kg wet, 157 kg dry
Launch date (UTC)
1962-10-31 (63 years ago)
Launch vehicle
THOR ABLESTAR
Launch site
Air Force Eastern Test Range (AFETR)
Object type
Payload
Rocket body
Debris
Shape & HBR
Unknown
Radar Cross Section
Medium (>0.1 m² and <1 m²)

Expand to show TLE details & history
Last TLE update: 9 hours ago

TLE from 9 hours ago
0 ANNA 1B
1 00446U 62060A   25351.23905948 -.00000106  00000-0  39112-4 0  9992
2 00446  50.1431 292.8385 0070041 195.4046 310.6385 13.35356163 79398
Epoch: 2025-12-17T05:44Z
TLE epoch observation values (Epoch: 2025-12-17T05:44:14.739Z)
Latitude
25.89489°
Longitude
-83.11373°
Altitude
1,093.381 km
Speed
7.325 km/s
True Right ascension
05h 56m 14s
True Declination
25° 45' 58"
Sunlit
Object was in full shadow at epoch
Visualization orbit readout
Latitude
Unknown
Longitude
Unknown
Altitude
Unknown
Speed
Unknown
Apparent Right ascension
Unknown
Apparent Declination
Unknown
Sunlit
N/A
Visualization observer readout
Local Sidereal Time
13:25:46
Azimuth
Unknown
Elevation
Unknown
Doppler factor
Unknown
Orbital elements
Apogee altitude
1,179.883 km
Perigee altitude
1,074.745 km
Semi-major axis
7,505.451 km
Eccentricity
0.007
Inclination
50.1431°
RAAN
292.8385°
Arg. of periapsis
195.4046°
True anomaly
310.02597°
Mean anomaly
310.6385°
Eccentric anomaly
310.33258°
Mean motion
3.33794 °/min
Orbital period
107.85 mins
BSTAR
0.000039112
Loading maneuver chart data...
Computing Atmospheric mass density...
Loading historical data...
Loading historical data...
Loading historical data...
Loading historical data...
Loading historical data...
Loading historical data...
Loading historical data...
Other satellites on launch #60 in the year 1962 (1962-10-31 UTC)

Documentation

Showing up to 5 results
|